Zurück zum Katalog

SL-24 R/B

AktivPO
NORAD 31699·ROCKET BODY·🇷🇺 Russia

Gestartet Jun 15, 2007 von Baikonur Cosmodrome

Loading…

Nächste Überflüge (nächste 24 Stunden)

TLE

AktuellSource: Space-Track

Epoche: Sep 14, 2026, 07:39 UTC

1 31699U 07026B   26257.31930063  .00000686  00000-0  10223-3 0  9991
2 31699  97.4711 217.3007 0333762  80.2230  78.0327 14.46128072 12418

Verfolge SL-24 R/B in Echtzeit mit AllMySat

Download on the App Store